KOMPASS

Satellite information

Favourite Embed

Satellite Type and Status

PAYLOADIN ORBIT

Key statistics

Satellite KOMPASS at a glance.

Uptime

8610

Days in orbit

Revolutions

≈ 13.7

Per day

Orbit

SSO

Sun Synchronous Orbit

Inclination

99.8

Latest

Satellite identification and parameters

Extended collection of information and parameters for KOMPASS.

Object identification

Identified? True

Debris? False

Object name: KOMPASS

International designator: 2001-056B

Object number (NORAD): 27002

Object ID (CCSDS): 27002

Country: COMMONWEALTH OF INDEPENDENT STATES (CIS)

Current information (Y/N): Y

RCS size: MEDIUM

Orbital parameters

Period: 105.064 minutes

Inclination: 99.7655 deg

SMA: 7375.588 km

Apoapsis: 1011.244 km

Periapsis: 983.662 km

RAAN: 351.3543 deg

Eccentricy: 0.0018698

Argument of periapsis: 302.2852 deg

Mean anomaly: 111.9634 deg

Mean motion: 13.70590812 rev/day

Mean motion (dot): 0.00000015 rev/day2

B* drag term: 0.000069371 1/REarth

Two-line elements (TLE)

Creation date: July 6, 2025, 6:05 p.m.

Reference frame: TEME

Reference center: EARTH

Epoch: July 6, 2025, 10:10 a.m. UTC

TLE line 0: 0 KOMPASS

TLE line 1: 1 27002U 01056B 25187.42415027 .00000015 00000-0 69371-4 0 9997

TLE line 2: 2 27002 99.7655 351.3543 0018698 302.2852 111.9634 13.70590812178874

Live tracking on map

Real-time ground track for satellite KOMPASS.

In-orbit conjunctions

A list of the most updated potential collisions computed for object KOMPASS.

Target Orbit TCA Probability of collision Miss distance Type
COSMOS 1275 DEB LEO 2025-01-28 11:23:50 0.0002408636 193.0 (m) DEBRIS

Associated space launch

Meteor-3M No.1 is the first and so far only of the Meteor-3M series polar-orbit weather satellites.

KOMPASS was lifted into orbit during the mission ‘Zenit-2 | Meteor-3M No. 1’, on board a Zenit-2 space rocket.

The launch took place on Dec. 10, 2001, 5:18 p.m. from 45/1.

For more information about the launch, click the button.

Launch to space Zenit-2 | Meteor-3M No. 1
Zenit-2 | Meteor-3M No. 1

Agency: N/A

Status: Launch Successful

Launch date: Dec. 10, 2001, 5:18 p.m. UTC

Rocket: Zenit-2

Launch pad: 45/1

Location: Baikonur Cosmodrome, Republic of Kazakhstan

...

Latest news about this satellite

There are no fresh news available about this satellite. Check back as we update our databases every day.


Newsletter sign-up

Weekly statistics, charts and insights to help you stay on top of the space industry.